Regional Weather Roundup
Issued by NWS Sioux Falls, SD

Home | Current Version | Previous Version | Graphics & Text | Print | Product List | Glossary Off
Versions: 1 2 3 4 5 6 7 8 9 10 11 12 13 14 15 16 17 18 19 20 21 22 23 24 25 26 27 28 29 30 31 32 33 34 35 36 37 38 39 40 41 42 43 44 45 46 47 48 49 50

000
ASUS43 KFSD 291602
RWRFSD

WEATHER ROUNDUP FOR SE SOUTH DAKOTA/SW MINNESOTA/NW IOWA
NATIONAL WEATHER SERVICE SIOUX FALLS SD
1100 AM CDT FRI AUG 29 2014

NOTE: "FAIR" INDICATES FEW OR NO CLOUDS BELOW 12,000 FEET WITH NO
SIGNIFICANT WEATHER AND OR OBSTRUCTIONS TO VISIBILITY.


SDZ038>040-050-052>070-291700-
SOUTHEAST SOUTH DAKOTA

CITY           SKY/WX    TMP DP  RH WIND       PRES   REMARKS
CHAMBERLAIN    CLOUDY    69  66  91 NW5       29.84R
HURON          PTSUNNY   72  68  87 N7        29.80R
MADISON        CLOUDY    72  72 100 N6        29.82R
MITCHELL       CLOUDY    71  70  96 W5        29.81R
SIOUX FALLS    CLOUDY    72  69  90 CALM      29.81R
WINNER         FAIR      74  65  73 VRB7      29.85S
YANKTON        CLOUDY    72  66  83 CALM      29.82R
$$

MNZ071-072-080-081-089-090-097-098-291700-
SOUTHWEST MINNESOTA

CITY           SKY/WX    TMP DP  RH WIND       PRES   REMARKS
FAIRMONT       CLOUDY    70  64  83 S12       29.81S
JACKSON        CLOUDY    72  66  83 S9        29.82F
LUVERNE        PTSUNNY   73  68  83 S5        29.81R
MARSHALL       CLOUDY    70  66  88 N5        29.78S
MONTEVIDEO     TSTM      66  66 100 N5        29.80R
PIPESTONE      CLOUDY    70  68  94 S7        29.81S FOG
REDWOOD FALLS  CLOUDY    71  69  93 S9        29.78S
TRACY          CLOUDY    76  71  83 SW10G16   29.79F
WINDOM         CLOUDY    73  66  78 S9        29.81S
WORTHINGTON    CLOUDY    72  68  88 S10       29.83R
$$

IAZ001>003-012>014-020>022-031-032-NEZ013-014-SDZ071-291700-
NORTHWEST IOWA

CITY           SKY/WX    TMP DP  RH WIND       PRES   REMARKS
DENISON        CLOUDY    72  72 100 S10       29.82R
ESTHERVILLE    CLOUDY    72  68  87 SW10      29.81F
LE MARS        CLOUDY    72  70  94 SW7       29.82R
ORANGE CITY    LGT RAIN  72  68  88 S7        29.82R
SHELDON        CLOUDY    72  70  94 S9        29.81R
SIOUX CITY     LGT RAIN  73  70  90 W5        29.82R
SPENCER        LGT RAIN  70  67  90 S9        29.82S
STORM LAKE     CLOUDY    68  68 100 S7        29.82F FOG
$$

ABBREVIATIONS USED IN REMARKS
   TC - TEMPERATURE IN CELSIUS
  WCI - WIND CHILL INDEX
   HX - HEAT INDEX
  VSB - VISIBILITY




USA.gov is the U.S. government's official web portal to all federal, state and local government web resources and services.